Powrót do katalogu

ONEWEB-0644

AktywnyŁącznośćPO
NORAD 55808·PAYLOAD·🇬🇧 United Kingdom

Wystrzelony Mar 9, 2023 z Cape Canaveral Space Force Station

Loading…

Następne Przeloty (najbliższe 24 godziny)

TLE

ŚwieżeSource: CelesTrak SupGP

Epoka: Sep 14, 2026, 19:23 UTC

1 55808C 23029N   26257.80817546 -.00000223  00000+0 -55735-3 0  2576
2 55808  87.9100 287.1223 0001799  84.8126  26.3441 13.19722479    19

Śledź ONEWEB-0644 w czasie rzeczywistym z AllMySat

Download on the App Store